Bowling Green, KY

10:17 AM CDT on May 27, 2017 (GMT -0500)
Bowling Green-Warren County Regional

Weather History for KBWG - September, 2013

Change the Weather History Date:

Thursday, September 26, 2013

  Actual Average Record
Temperature  
Mean Temperature 68 °F 66 °F  
Max Temperature 81 °F 78 °F 93 °F (1923)
Min Temperature 55 °F 54 °F 34 °F (2001)
Degree Days  
Heating Degree Days 0 3  
Month to date heating degree days 12 20  
Since 1 July heating degree days 12 21  
Cooling Degree Days 3 3  
Month to date cooling degree days 182 174  
Year to date cooling degree days 1442 1443  
Growing Degree Days 18 (Base 50)    
Moisture  
Dew Point 59 °F    
Average Humidity 70    
Maximum Humidity 100    
Minimum Humidity 39    
Precipitation  
Precipitation 0.00 in 0.13 in 3.66 in (2002)
Month to date precipitation 4.98 3.40  
Year to date precipitation 47.68 36.96  
Snow  
Snow 0.00 in 0.00 in 0.00 in ()
Month to date snowfall 0.0 0.0  
Since 1 July snowfall 0.0 0.0  
Since 1 September snowfall 0.0 0.0  
Snow Depth 0.00 in    
Sea Level Pressure  
Sea Level Pressure 29.97 in    
Wind  
Wind Speed 2 mph (NE)    
Max Wind Speed 9 mph    
Max Gust Speed 14 mph    
Visibility 4 miles    
Events Fog    
T = Trace of Precipitation, MM = Missing Value Source: NWS Daily Summary

Daily Weather History Graph

Daily Weather History Graph

Search for Another Location

Airport or City:

Trip Planner

Search our weather history database for the weather conditions in past years. The results will help you decide how hot, cold, wet, or windy it might be!

Date:

Astronomy

Sep. 26, 2013 Rise Set
Actual Time 6:37 AM CDT 6:36 PM CDT
Civil Twilight 6:11 AM CDT 7:01 PM CDT
Nautical Twilight 5:40 AM CDT 7:32 PM CDT
Astronomical Twilight 5:10 AM CDT 8:02 PM CDT
Moon 11:41 PM CDT (9/26) 1:21 PM CDT (9/26)
Length of Visible Light 12h 50m
Length of Day
11h 59m
Waning Gibbous, 54% of the Moon is Illuminated
Sep 26
Waning Gibbous
Sep 26
Last Quarter
Oct 4
New
Oct 11
First Quarter
Oct 18
Full

Hourly Weather History & Observations

Time (CDT) Temp. Heat Index Dew Point Humidity Pressure Visibility Wind Dir Wind Speed Gust Speed Precip Events Conditions
12:26 AM 62.6 °F - 60.8 °F 94% 29.90 in 1.8 mi Calm Calm - N/A   Clear
12:30 AM 62.6 °F - 60.8 °F 94% 29.90 in 0.8 mi Calm Calm - N/A   Clear
12:39 AM 60.8 °F - 60.8 °F 100% 29.90 in 0.5 mi Calm Calm - N/A Fog Fog
12:53 AM 60.1 °F - 59.0 °F 96% 29.89 in 1.2 mi Calm Calm - N/A   Clear
12:55 AM 60.8 °F - 59.0 °F 94% 29.90 in 2.5 mi Calm Calm - N/A   Clear
1:03 AM 60.8 °F - 59.0 °F 94% 29.90 in 10.0 mi Calm Calm - N/A   Clear
1:11 AM 60.8 °F - 59.0 °F 94% 29.90 in 1.2 mi Calm Calm - N/A   Clear
1:15 AM 60.8 °F - 60.8 °F 100% 29.90 in 0.8 mi Calm Calm - N/A   Mist
1:22 AM 60.8 °F - 60.8 °F 100% 29.91 in 0.2 mi Calm Calm - N/A Fog Fog
1:31 AM 60.8 °F - 59.0 °F 94% 29.91 in 0.2 mi Calm Calm - N/A Fog Fog
1:38 AM 59.0 °F - 59.0 °F 100% 29.90 in 0.2 mi Calm Calm - N/A Fog Fog
1:53 AM 59.0 °F - 57.9 °F 96% 29.90 in 0.2 mi Calm Calm - N/A Fog Fog
2:53 AM 60.1 °F - 59.0 °F 96% 29.90 in 0.2 mi Calm Calm - N/A Fog Fog
3:53 AM 60.1 °F - 60.1 °F 100% 29.91 in 0.2 mi Calm Calm - N/A Fog Fog
4:40 AM 60.8 °F - 59.0 °F 94% 29.93 in 0.2 mi Calm Calm - 0.01 in Fog Fog
4:53 AM 59.0 °F - 57.9 °F 96% 29.93 in 0.2 mi Calm Calm - 0.01 in Fog Fog
5:04 AM 59.0 °F - 57.2 °F 94% 29.94 in 0.2 mi NE 3.5 mph - N/A Fog Fog
5:11 AM 57.2 °F - 57.2 °F 100% 29.94 in 0.2 mi Calm Calm - N/A Fog Fog
5:40 AM 59.0 °F - 59.0 °F 100% 29.95 in 0.2 mi Calm Calm - N/A Fog Fog
5:53 AM 59.0 °F - 57.9 °F 96% 29.94 in 0.2 mi Calm Calm - N/A Fog Fog
6:06 AM 59.0 °F - 57.2 °F 94% 29.96 in 0.2 mi Calm Calm - N/A Fog Fog
6:53 AM 59.0 °F - 59.0 °F 100% 29.96 in 0.2 mi Calm Calm - N/A Fog Fog
7:53 AM 60.1 °F - 59.0 °F 96% 29.99 in 0.2 mi Calm Calm - N/A Fog Fog
8:53 AM 62.1 °F - 61.0 °F 96% 30.01 in 0.5 mi Calm Calm - N/A Fog Fog
9:36 AM 62.6 °F - 62.6 °F 100% 30.02 in 0.8 mi Calm Calm - N/A   Overcast
9:41 AM 62.6 °F - 62.6 °F 100% 30.03 in 1.5 mi Calm Calm - N/A   Overcast
9:46 AM 62.6 °F - 62.6 °F 100% 30.03 in 3.0 mi Calm Calm - N/A   Overcast
9:53 AM 63.0 °F - 62.1 °F 97% 30.02 in 5.0 mi Calm Calm - N/A   Overcast
10:45 AM 68.0 °F - 64.4 °F 88% 30.03 in 10.0 mi ENE 3.5 mph - N/A   Overcast
10:53 AM 68.0 °F - 64.0 °F 87% 30.03 in 10.0 mi Calm Calm - N/A   Mostly Cloudy
11:16 AM 69.8 °F - 64.4 °F 83% 30.03 in 10.0 mi Calm Calm - N/A   Scattered Clouds
11:53 AM 73.9 °F - 64.0 °F 71% 30.01 in 10.0 mi Calm Calm - N/A   Clear
12:53 PM 77.0 °F - 59.0 °F 54% 30.00 in 10.0 mi Variable 6.9 mph - N/A   Scattered Clouds
1:53 PM 78.1 °F - 57.0 °F 48% 29.99 in 10.0 mi NE 4.6 mph - N/A   Partly Cloudy
2:53 PM 80.1 °F 79.9 °F 53.1 °F 39% 29.98 in 10.0 mi NE 4.6 mph - N/A   Clear
3:53 PM 80.1 °F 80.1 °F 55.0 °F 42% 29.97 in 10.0 mi Calm Calm - N/A   Clear
4:53 PM 79.0 °F - 55.9 °F 45% 29.98 in 10.0 mi NE 6.9 mph - N/A   Clear
5:53 PM 75.9 °F - 55.0 °F 48% 30.00 in 10.0 mi NNE 5.8 mph - N/A   Clear
6:53 PM 68.0 °F - 55.9 °F 65% 30.01 in 10.0 mi ENE 3.5 mph - N/A   Clear
7:53 PM 64.9 °F - 55.0 °F 70% 30.02 in 10.0 mi ENE 4.6 mph - N/A   Clear
8:53 PM 61.0 °F - 55.0 °F 81% 30.04 in 10.0 mi Calm Calm - N/A   Clear
9:53 PM 62.1 °F - 55.9 °F 80% 30.04 in 10.0 mi Calm Calm - N/A   Clear
10:53 PM 59.0 °F - 55.0 °F 87% 30.05 in 10.0 mi Calm Calm - N/A   Clear
11:53 PM 57.0 °F - 54.0 °F 89% 30.04 in 9.0 mi Calm Calm - N/A   Clear